Showing default

YAOGAN-30 H, 43082

Orbit data source: Space-Track

YAOGAN-30 H, 43082 is a payload satellite owned by PLA SSF (CN) in LEO that was launched on Mon, 25 Dec 2017 UTC via a CHANG ZHENG 2C launch vehicle from the Xichang Space Center, China (XSC). Payload-class satellites include a variety of spacecraft equipped with specific instruments for various scientific and technological missions. These include communications satellites like Starlink; space stations such as the ISS; scientific satellites like the Hubble; Earth observation satellites from companies like Planet Labs, Umbra, and HawkEye 360; GPS; miniature CubeSats for education and research; and military/defense satellites.

Loading next visibility...
Identifier
43082, 2017-085B
Orbit
LEO
Country
Flag of CNCN / PRC
Related business
Manufacturer
SECM
Mission
Operational Defense Sigint
Bus & Motor
Unknown
Mass
~500 kg wet, ~500 kg dry
Launch date (UTC)
2017-12-25 (8 years ago)
Launch vehicle
CHANG ZHENG 2C
Launch site
Xichang Space Center, China (XSC)
Object type
Payload
Rocket body
Debris
Shape & HBR
Box + 2 Pan, 0.5 m
Radar Cross Section
0.446 m², Large (>1 m²)

Expand to show TLE details & history
Last TLE update: 1 day ago

TLE from 1 day ago
0 YAOGAN-30 H
1 43082U 17085B   26172.29477296  .00001899  00000-0  14157-3 0  9990
2 43082  34.9939 125.1107 0004365   9.6946 350.3846 15.02704718463316
Epoch: 2026-06-21T07:04Z
TLE epoch observation values (Epoch: 2026-06-21T07:04:28.383Z)
Latitude
-0.00002°
Longitude
109.49531°
Altitude
554.492 km
Speed
7.588 km/s
True Right ascension
08h 20m 26s
True Declination
0° 00' 00"
Sunlit
Object was in daylight at epoch
Visualization orbit readout
Latitude
Unknown
Longitude
Unknown
Altitude
Unknown
Speed
Unknown
Apparent Right ascension
Unknown
Apparent Declination
Unknown
Sunlit
N/A
Visualization observer readout
Local Sidereal Time
21:28:39
Azimuth
Unknown
Elevation
Unknown
Doppler factor
Unknown
Orbital elements
Apogee altitude
564.812 km
Perigee altitude
558.753 km
Semi-major axis
6,939.919 km
Eccentricity
0.00044
Inclination
34.9939°
RAAN
125.1107°
Arg. of periapsis
9.6946°
True anomaly
350.37624°
Mean anomaly
350.3846°
Eccentric anomaly
350.38042°
Mean motion
3.75415 °/min
Orbital period
95.89 mins
BSTAR
0.00014157
Loading maneuver chart data...
Computing Atmospheric mass density...
Loading historical data...
Loading historical data...
Loading historical data...
Loading historical data...
Loading historical data...
Loading historical data...
Loading historical data...
Other satellites on launch #85 in the year 2017 (2017-12-25 UTC)

Documentation

Showing up to 5 results
|